sat.trackr.live / text

‹ back to catalog

ONEWEB-0137

NORAD 47283 · 2020-100AB

PAYLOAD ACTIVE UNKNOWN

§ Identity

Operator
Country
UK
Launch date
2020-12-18
Launch site
VOSTO
Launch vehicle
Mass (kg)
RCS (m²)

Purposes: comms

External: N2YO · Heavens-Above · Gunter

§ Orbital elements

Epoch: 2026-09-19T14:34:10.222464Z

Period
109.72 min
Inclination
87.8983°
Eccentricity
0.0001994
Mean motion
13.12442408 rev/d
Perigee alt
1,212.2 km
Apogee alt
1,215.2 km
Semi-major
7,591.9 km
B*
-1.1537e-3
RAAN
331.9211°
Arg perigee
101.3916°
Mean anomaly
258.7437°
Rev number
27,695

§ Raw data

ONEWEB-01371 47283U 20100AB  26262.60706276 -.00000402  00000+0 -11537-2 0  99952 47283  87.8983 331.9211 0001994 101.3916 258.7437 13.12442408276957

JSON: /api/v1/satellites/47283 · /tle

For live sub-satellite position, see the globe view (requires WebGL).

§ Visibility from observer

Set your observer location to see the next 7 days of passes ≥ 10°. The values pass through the URL so the page stays shareable.

No JS? Fill the form by hand. The geolocation button needs JavaScript.